GFSFLT1_prec_cthk_192.txt.gz
RH
29 27 26 26 24 23 25 31 35 35 32 34 38 39 37 42 42 41 42 46 54 58 66 72 75 70 64 58 62 61 58 60
30 28 27 27 26 25 26 27 35 39 35 33 31 36 41 46 46 47 51 52 56 59 63 72 76 73 68 65 62 62 63 63
30 28 25 23 24 25 25 23 25 34 47 44 37 34 34 39 44 49 49 53 59 57 63 69 67 72 74 69 64 63 61 61
33 31 29 28 28 28 28 28 25 31 37 42 49 46 42 40 38 42 45 54 56 66 64 68 67 69 72 72 68 64 66 65
34 33 32 33 33 34 32 29 27 29 33 42 46 53 52 45 44 43 43 46 51 63 67 70 66 73 70 69 68 68 65 67
36 36 34 32 33 34 35 34 32 31 31 37 41 43 52 60 53 52 54 50 51 51 63 74 70 68 73 67 68 65 65 69
37 35 33 32 32 35 36 35 34 33 29 29 32 39 46 51 60 59 53 55 58 59 59 65 78 72 75 74 72 71 71 72
35 34 33 33 34 34 34 35 38 40 36 29 32 33 35 39 49 57 68 63 60 64 71 66 70 74 76 76 78 76 70 72
33 31 31 32 32 35 39 36 32 35 41 38 36 35 41 40 44 49 57 62 70 72 79 76 74 75 76 77 80 83 78 73
33 32 32 31 33 35 35 39 37 30 31 30 30 33 38 50 46 50 53 58 62 75 85 86 84 80 79 82 78 91 83 73
34 29 28 29 32 30 30 30 35 38 26 28 29 32 40 47 61 70 76 68 74 77 87 93 86 81 83 83 85 81 89 75
25 24 25 27 25 29 33 42 39 33 28 23 25 35 41 51 61 67 76 78 75 93 92 92 88 81 81 90 86 87 91 79
24 24 26 25 29 32 33 37 34 29 23 28 31 34 44 51 60 73 86 86 96 99 97 99 93 87 88 90 90 89 94 82
28 29 29 28 26 26 24 22 21 26 32 32 31 36 57 67 75 84 88 93 96 98 96 99 93 99 94 97 95 93 92 86
25 24 27 29 28 26 28 29 30 30 34 33 36 42 61 72 84 89 93 97 99 99 98 99 96 98 97 98 99 94 90 92
28 32 33 27 30 41 44 50 46 38 40 37 44 53 69 77 91 97 97 91 94 99 97 96 98 97 96 97 95 98 99 98
32 30 26 29 46 49 53 61 59 50 48 50 55 66 70 85 96 97 96 94 98 99 93 98 95 96 97 94 92 90 96 98
26 23 28 40 52 56 61 64 63 56 56 57 65 70 77 83 96 98 98 97 95 98 99 97 94 92 95 93 92 94 96 98
18 23 28 46 54 58 64 69 72 60 60 63 68 72 75 95 97 98 97 97 98 97 95 97 94 93 96 96 95 96 95 98

GFSFLT1_prec_cthk_198.txt.gz
RH
30 28 27 28 26 26 26 28 31 33 35 38 41 40 46 49 48 51 57 62 56 53 50 48 61 65 60 60 63 63 62 58
31 31 30 30 29 28 28 24 25 29 32 35 36 36 37 39 41 46 57 61 66 62 62 63 67 60 67 64 58 64 60 61
33 33 33 31 32 31 29 25 22 24 25 26 27 29 33 35 37 41 42 55 61 66 71 70 71 62 63 70 68 70 65 60
34 34 35 34 33 31 30 28 26 27 29 29 28 27 26 26 28 30 36 41 47 55 61 93 81 78 74 68 71 70 75 71
36 37 38 36 35 34 32 33 32 33 34 32 30 30 29 27 25 24 24 28 32 37 50 64 73 78 81 77 84 73 80 69
38 38 38 37 35 35 36 39 41 42 41 39 39 38 33 29 27 27 27 27 25 25 31 37 49 59 74 84 94 80 92 86
38 39 37 36 37 37 38 39 40 39 39 40 39 35 32 28 24 23 20 19 18 19 23 26 32 40 57 69 79 97 93 94
36 35 36 38 37 38 39 40 40 40 40 39 36 33 33 33 28 23 17 14 14 13 19 22 24 27 35 42 58 72 85 98
37 39 40 40 40 40 42 42 41 41 40 37 37 36 34 31 29 28 22 17 16 16 18 20 21 23 28 35 42 52 59 83
41 42 42 43 43 44 44 43 42 40 35 30 25 22 19 18 18 19 20 22 28 27 23 20 19 20 25 35 44 54 56 62
43 45 45 45 46 45 44 44 41 34 28 23 22 19 18 20 22 23 28 36 41 36 28 26 21 21 26 36 43 49 57 54
48 47 46 47 46 47 46 40 31 26 20 21 20 19 20 22 27 29 35 38 38 39 35 30 27 28 31 43 50 56 64 65
51 49 50 50 48 46 38 31 25 17 18 19 19 18 20 25 34 38 40 45 45 48 41 40 37 36 40 56 69 75 81 86
56 56 54 49 43 38 31 22 14 12 15 18 21 22 23 27 37 41 45 50 48 45 48 48 49 58 67 76 85 87 91 94
58 52 45 41 34 27 22 14 9 11 16 23 26 24 22 28 38 45 49 49 51 58 69 82 84 85 88 91 97 99 97 98
50 45 38 31 28 22 14 10 11 16 18 24 25 24 32 39 48 51 49 50 67 83 91 91 91 96 94 97 98 95 94 94
45 36 31 29 23 15 13 14 15 19 23 28 27 31 41 48 54 50 52 67 83 91 91 97 97 97 97 98 98 93 97 96
35 30 28 22 14 13 16 17 19 22 29 28 32 41 49 51 50 53 64 79 89 97 97 97 97 98 98 98 98 97 97 98
30 26 20 13 13 16 20 20 22 30 28 30 45 53 57 56 53 57 72 86 95 97 97 97 97 96 98 98 97 97 97 97

GFSFLT1_prec_cthk_201.txt.gz
RH
30 28 27 26 27 28 29 30 30 33 36 40 40 41 44 45 45 44 47 50 57 62 63 64 70 73 71 63 64 75 61 57
30 29 29 30 32 35 35 35 36 36 33 40 42 42 40 38 39 40 40 41 43 46 51 61 69 75 77 78 81 81 81 85
33 32 32 33 34 35 35 34 33 31 27 24 25 26 28 29 30 30 36 38 37 39 43 50 59 64 72 79 82 84 85 86
36 34 34 34 35 35 35 33 32 30 29 27 26 28 30 30 30 30 31 32 34 38 40 42 47 53 56 64 75 83 96 92
39 38 37 36 36 36 36 36 36 35 34 34 33 34 35 35 35 33 32 31 31 30 29 29 30 38 42 56 67 71 86 98
40 39 38 38 39 38 39 39 39 38 38 38 38 38 39 39 38 38 39 36 34 28 26 24 25 24 23 26 38 61 72 81
41 41 41 41 41 41 41 41 42 42 42 40 39 41 42 41 38 39 38 33 26 22 19 19 18 17 18 18 24 32 48 62
43 42 41 41 42 42 44 45 46 46 46 44 44 44 43 43 42 36 29 26 26 22 18 16 15 16 17 18 19 22 29 42
43 42 41 41 41 42 45 46 46 45 43 44 45 43 38 33 29 26 23 20 19 19 18 17 16 22 24 23 24 22 23 28
42 42 41 42 45 46 47 45 44 45 46 45 40 35 33 30 27 22 18 15 16 18 20 24 26 29 31 33 31 28 27 26
43 43 44 46 47 47 47 48 48 48 47 40 35 32 29 26 23 20 16 13 16 18 22 28 32 36 35 39 40 37 35 35
45 46 48 50 50 50 51 50 50 46 39 35 30 25 22 22 20 17 14 14 18 24 29 33 38 42 44 45 43 41 41 37
50 51 52 52 53 53 51 50 48 41 34 28 24 21 19 17 16 14 15 21 24 32 38 42 41 43 45 54 58 56 51 45
54 54 56 56 54 53 52 51 44 36 28 24 21 17 16 15 15 16 21 29 33 39 47 45 49 59 71 80 82 85 84 67
56 58 57 55 55 55 54 47 37 29 24 19 14 13 15 16 19 25 30 37 42 45 49 55 68 80 88 92 93 91 88 81
61 60 58 58 59 54 48 39 30 23 18 15 14 16 20 24 28 33 40 45 50 50 57 72 80 91 91 96 96 96 94 96
66 65 62 57 53 47 38 30 23 19 16 15 16 20 25 30 37 42 47 54 53 55 67 77 87 91 97 97 98 96 97 95
67 62 59 54 44 37 29 23 19 17 15 16 19 26 32 39 46 52 54 55 51 61 76 82 90 95 95 96 97 96 97 98
61 58 51 42 36 30 21 20 17 16 17 20 25 33 40 46 53 55 57 55 56 73 82 90 92 93 95 96 96 96 97 98

GFSFLT1_prec_cthk_204.txt.gz
RH
35 35 32 29 28 28 29 31 35 39 41 43 41 41 41 40 42 45 45 45 48 48 51 54 56 57 57 58 61 68 78 77
38 36 32 30 30 30 31 34 38 43 46 49 45 40 41 41 39 40 44 47 48 48 41 47 47 47 47 50 56 63 61 73
43 40 38 36 34 36 38 41 43 46 49 47 46 40 26 23 24 25 28 31 33 39 41 41 42 43 45 58 57 63 61 63
42 42 39 37 35 37 37 38 38 37 35 34 32 30 29 30 31 31 34 35 36 36 37 38 38 37 37 39 45 48 57 58
42 45 42 39 37 36 36 36 37 37 36 36 36 34 34 34 35 36 37 38 38 39 37 35 34 33 32 31 32 31 36 49
46 47 43 41 39 39 38 37 38 39 40 38 37 37 38 39 40 40 39 40 41 40 38 36 34 32 28 25 24 23 24 28
49 48 44 42 41 41 40 40 42 41 41 40 40 40 40 41 42 40 38 37 37 37 36 34 30 25 23 22 20 18 18 19
50 51 48 45 44 45 44 43 43 42 42 42 42 42 42 43 40 38 37 37 37 36 31 25 21 19 17 16 19 21 24 25
52 53 51 48 47 47 46 45 44 44 44 44 43 42 41 40 38 38 37 36 33 28 22 17 15 15 16 18 24 29 33 33
52 54 53 50 48 47 46 46 45 45 45 44 44 42 40 39 38 38 32 27 23 18 16 14 14 16 18 25 28 30 31 35
52 53 52 50 50 49 48 48 48 47 46 45 44 43 41 38 35 30 24 21 17 16 15 16 20 26 29 34 36 36 38 38
52 52 51 50 51 51 51 50 50 47 45 45 43 40 37 34 28 23 20 18 18 19 20 24 28 32 35 40 42 42 43 47
50 51 51 52 54 54 52 50 48 47 48 46 42 38 34 28 23 20 20 20 21 22 26 29 32 37 41 44 45 55 72 81
53 53 55 57 57 55 53 51 51 50 48 45 40 33 27 23 21 21 22 24 25 30 36 37 39 44 45 48 63 74 83 91
57 59 61 61 60 58 56 54 52 50 45 40 33 28 24 22 21 22 25 28 29 34 39 42 45 46 50 64 76 82 87 90
63 62 61 61 61 59 57 55 53 47 42 35 29 25 22 21 21 24 27 29 33 39 42 47 49 53 66 76 80 84 89 94
66 64 63 64 64 58 58 55 49 44 38 31 26 23 20 19 23 27 30 32 37 41 47 50 57 68 78 80 82 86 92 97
67 68 66 66 67 66 59 53 48 40 33 27 23 19 18 21 26 30 34 37 41 49 50 60 72 79 80 81 84 91 95 97
70 71 70 71 67 59 55 48 42 35 27 22 19 20 21 26 29 34 39 45 50 52 57 71 76 79 81 83 90 94 95 97